[[{"header":{"parameterUnit":"m.s-1","parameterCategory":1,"la1":30.2991,"la2":30.254,"lo1":-89.0895,"lo2":-89.0444,"dy":0.0017,"dx":0.0017,"nx":28,"ny":28,"refTime":"2024-07-18T03:00:00:Z","depth":0,"parameterNumber":2,"parameterNumberName":"U-component_of_WINDS"},"data":[0,0,0,0,0,0,0,0,0,0,0,0,0,0,0,0,0,0,0,0,0,0,0,0,0,0,0,0,0,0,0,0,0,0,0,0,0,0,0,0,0,0,0,0,0,0,0,0,0,0,0,0,0,0,0,0,0,0,0.2671,0.2673,0,0.2838,0.284,0.2842,0.2908,0.2908,0.2907,0.2907,0.3079,0.3084,0.3088,0,0,0,0,0,0,0,0,0,0,0,0,0,0.2412,0.2416,0.2671,0.2673,0.2675,0.2837,0.284,0.2842,0.2908,0.2908,0.2907,0.2907,0.3077,0.3083,0.3089,0,0,0,0,0,0,0,0,0,0,0,0,0,0.2546,0.2418,0.2671,0.2728,0.2735,0.2837,0.284,0.2843,0.2908,0.2908,0.2907,0.2907,0.3075,0.3082,0.309,0.3148,0,0,0.3112,0.3116,0,0,0,0,0,0,0,0,0.2538,0.2556,0.2718,0.2724,0.2732,0.2852,0.2811,0.2945,0.2909,0.2843,0.2907,0.2906,0.3004,0.3017,0.305,0.3156,0.3163,0.3113,0.3118,0.3121,0.3123,0,0,0,0,0,0,0,0.2529,0.2549,0.2737,0.272,0.2729,0.2746,0.2764,0.2837,0.2925,0.2848,0.2854,0.2872,0.3008,0.3042,0.3054,0.3166,0.3113,0.312,0.3124,0.3127,0.3328,0.3329,0,0,0,0,0,0,0.251,0.2541,0.2732,0.2742,0.2632,0.2751,0.2771,0.2814,0.2924,0.294,0.2873,0.2875,0.303,0.3045,0.306,0.3136,0.3121,0.3128,0.3132,0.3328,0.3329,0.333,0,0,0,0,0,0,0.2504,0.2527,0.2725,0.2643,0.2669,0.2756,0.2803,0.2817,0.2852,0.2942,0.2958,0.2892,0.303,0.305,0.3126,0.3143,0.3131,0.3138,0.3326,0.3328,0.3329,0.3287,0,0,0,0,0,0,0.2497,0.2524,0.2547,0.2643,0.2674,0.2787,0.2804,0.2821,0.2865,0.2869,0.2965,0.298,0.3031,0.3114,0.3133,0.3153,0.3144,0.3325,0.3327,0.3329,0.3287,0.3286,0.3286,0,0,0,0,0,0.2487,0.2528,0.2548,0.257,0.2704,0.2788,0.2805,0.2863,0.2866,0.289,0.2947,0.2977,0.3138,0.3121,0.3143,0.3165,0.3325,0.3327,0.3329,0.3287,0.3286,0.3286,0,0,0,0,0,0,0.2432,0.2542,0.2564,0.2638,0.2703,0.2799,0.2831,0.2861,0.2927,0.2928,0.2997,0.3018,0.3088,0.3134,0.3114,0.3227,0.3233,0.324,0.3194,0.3195,0.3194,0.3181,0.315,0,0,0,0,0,0.2429,0.2488,0.2581,0.2636,0.2668,0.2743,0.2782,0.2821,0.2891,0.2919,0.2983,0.305,0.3116,0.3158,0.3224,0.3294,0.3316,0.332,0.3319,0.3319,0.3323,0.3364,0.3367,0.3336,0.3336,0.3336,0,0,0.2422,0.2489,0.2522,0.2627,0.2682,0.2742,0.2766,0.2828,0.2873,0.2929,0.3004,0.3053,0.3133,0.3206,0.3241,0.3247,0.3337,0.3321,0.332,0.3325,0.3366,0.3369,0.3372,0.3338,0.3337,0.3337,0,0,0.2441,0.2497,0.255,0.2605,0.2687,0.2737,0.275,0.2841,0.2876,0.2952,0.2995,0.305,0.3162,0.3217,0.3259,0.3298,0.3328,0.3318,0.3315,0.3354,0.3357,0.3359,0.3373,0.3377,0.3322,0.3322,0.3322,0,0.2422,0.2513,0.2573,0.2633,0.2678,0.2731,0.2785,0.2835,0.2935,0.2965,0.2969,0.3111,0.3168,0.3255,0.3265,0.3297,0.3314,0.3307,0.3351,0.3355,0.3358,0.3372,0.3377,0.3321,0.3321,0.3321,0.3321,0,0.2486,0.2549,0.2582,0.2676,0.2725,0.2781,0.2851,0.2893,0.2927,0.2977,0.3054,0.3125,0.3205,0.3229,0.3264,0.3321,0.3322,0.3338,0.3345,0.3358,0.3372,0.3378,0.3318,0.3319,0.3319,0.332,0,0,0.2475,0.2602,0.2613,0.2656,0.2751,0.2801,0.286,0.2939,0.2973,0.3041,0.3092,0.3186,0.3201,0.3249,0.3291,0.3325,0.3351,0.3337,0.334,0.3337,0.3419,0.3406,0.3411,0.3371,0.3373,0.3374,0.3412,0,0.2506,0.2613,0.2669,0.2753,0.2812,0.2862,0.2914,0.2978,0.3026,0.3083,0.3136,0.3201,0.3217,0.3246,0.3282,0.334,0.3368,0.3338,0.342,0.3422,0.3398,0.3419,0.3405,0.3438,0.3418,0.3419,0.342,0,0.2556,0.2622,0.2711,0.28,0.2826,0.2871,0.2948,0.3002,0.3076,0.3108,0.3162,0.3202,0.3267,0.3269,0.336,0.3338,0.3375,0.3408,0.3411,0.3421,0.3422,0.3429,0.345,0.3454,0.3429,0.3429,0.3428,0,0.2538,0.265,0.2718,0.2753,0.2858,0.2888,0.2934,0.3007,0.305,0.3117,0.3146,0.322,0.3261,0.3317,0.3377,0.3373,0.3461,0.3468,0.349,0.3488,0.3506,0.3504,0.3533,0.353,0.353,0.353,0.353,0,0.2567,0.262,0.2711,0.2753,0.2813,0.2877,0.2936,0.2985,0.3049,0.3102,0.3151,0.3199,0.3275,0.3333,0.338,0.3447,0.3465,0.3493,0.3505,0.3489,0.3485,0.3514,0.3513,0.3531,0.3531,0.353,0.353,0,0.2558,0.2621,0.2698,0.2791,0.2815,0.2856,0.2935,0.2978,0.3028,0.3094,0.3113,0.3192,0.3263,0.3328,0.3422,0.3454,0.3522,0.3537,0.3496,0.3503,0.3521,0.3518,0.3569,0.3579,0.3569,0.3569,0.3569,0,0.2571,0.2613,0.271,0.2748,0.2792,0.2853,0.2898,0.2963,0.3007,0.3094,0.3126,0.3201,0.3263,0.3374,0.344,0.3512,0.353,0.3543,0.3541,0.3523,0.353,0.3527,0.3531,0.3542,0.3541,0.3541,0.3541,0,0.2589,0.2619,0.2681,0.2754,0.2806,0.2866,0.2929,0.2958,0.3034,0.3082,0.3154,0.3203,0.3299,0.3372,0.3452,0.3499,0.3533,0.3541,0.355,0.3534,0.3508,0.3522,0.3494,0.354,0.354,0.354,0.354,0.354,0.2592,0.2632,0.2706,0.2773,0.2827,0.2884,0.2929,0.2984,0.3046,0.3128,0.3163,0.3236,0.331,0.342,0.3467,0.3526,0.3533,0.3546,0.3549,0.3551,0.3548,0.3499,0.3541,0.3541,0.3541,0.3541,0.3541,0,0.2613,0.2663,0.2724,0.281,0.2863,0.289,0.296,0.3003,0.3067,0.3132,0.3193,0.3276,0.3347,0.3419,0.3494,0.3527,0.3545,0.3545,0.3543,0.3553,0.3537,0.3522,0.3529,0.3529,0.3529,0.3529,0.3529,0.3529,0.263,0.2697,0.2735,0.283,0.288,0.2952,0.299,0.3043,0.3096,0.3186,0.3245,0.3291,0.3359,0.344,0.3506,0.3526,0.3551,0.3546,0.357,0.3554,0.3554,0.3555,0.3541,0.3551,0.3552,0.3581,0.3581,0.3582]},{"header":{"parameterUnit":"m.s-1","parameterCategory":1,"la1":30.2991,"la2":30.254,"lo1":-89.0895,"lo2":-89.0444,"dy":0.0017,"dx":0.0017,"nx":28,"ny":28,"refTime":"2024-07-18T03:00:00:Z","depth":0,"parameterNumber":3,"parameterNumberName":"V-component_of_WINDS"},"data":[0,0,0,0,0,0,0,0,0,0,0,0,0,0,0,0,0,0,0,0,0,0,0,0,0,0,0,0,0,0,0,0,0,0,0,0,0,0,0,0,0,0,0,0,0,0,0,0,0,0,0,0,0,0,0,0,0,0,1.0184,1.0186,0,1.0284,1.0285,1.0286,1.0273,1.0271,1.027,1.0268,1.0372,1.0377,1.0381,0,0,0,0,0,0,0,0,0,0,0,0,0,0.9984,0.9988,1.0184,1.0186,1.0187,1.0284,1.0285,1.0286,1.0273,1.0271,1.0269,1.0268,1.0371,1.0376,1.0381,0,0,0,0,0,0,0,0,0,0,0,0,0,1.0076,0.9989,1.0184,1.0192,1.0194,1.0283,1.0285,1.0287,1.0274,1.0271,1.0269,1.0267,1.0369,1.0376,1.0382,1.0471,0,0,1.0402,1.0405,0,0,0,0,0,0,0,0,1.0071,1.0083,1.019,1.0192,1.0194,1.0263,1.0253,1.0349,1.0274,1.0243,1.0268,1.0265,1.0338,1.0347,1.0371,1.0476,1.048,1.0402,1.0406,1.0409,1.0411,0,0,0,0,0,0,0,1.0064,1.0079,1.0224,1.0191,1.0194,1.0191,1.0201,1.0271,1.0304,1.0246,1.0245,1.0257,1.0339,1.0365,1.0374,1.0482,1.0402,1.0408,1.0412,1.0414,1.0664,1.0666,0,0,0,0,0,0,1.0056,1.0074,1.0221,1.0227,1.0125,1.0196,1.0208,1.0244,1.0303,1.0309,1.0259,1.0256,1.0355,1.0366,1.0377,1.0486,1.0409,1.0415,1.0419,1.0661,1.0664,1.0667,0,0,0,0,0,0,1.0051,1.0069,1.0217,1.015,1.0169,1.0202,1.0243,1.0247,1.0273,1.0313,1.0319,1.028,1.0354,1.0368,1.0448,1.0489,1.0418,1.0424,1.0658,1.0662,1.0666,1.0703,0,0,0,0,0,0,1.0046,1.0068,1.0102,1.0151,1.0172,1.0285,1.0245,1.0251,1.0284,1.0281,1.0334,1.034,1.0353,1.0438,1.0454,1.0497,1.0429,1.0654,1.066,1.0664,1.0698,1.0708,1.0716,0,0,0,0,0,1.0039,1.0109,1.0104,1.0121,1.0216,1.0288,1.03,1.0313,1.0287,1.0322,1.0347,1.0338,1.0481,1.0446,1.0464,1.0509,1.0652,1.0658,1.0664,1.0694,1.0706,1.0716,0,0,0,0,0,0,1.0065,1.0116,1.011,1.0199,1.0239,1.0285,1.033,1.0325,1.0374,1.0369,1.0384,1.0396,1.0476,1.05,1.046,1.0598,1.0563,1.0573,1.058,1.0591,1.06,1.0593,1.0434,0,0,0,0,0,1.0081,1.0135,1.0176,1.025,1.027,1.0296,1.0328,1.0334,1.0377,1.0394,1.0425,1.0467,1.0522,1.0557,1.061,1.07,1.0712,1.074,1.0749,1.0756,1.0765,1.0815,1.0828,1.0688,1.0688,1.0687,0,0,1.0115,1.0149,1.0183,1.0256,1.0288,1.0344,1.0311,1.0372,1.0413,1.0404,1.0481,1.0504,1.0552,1.0637,1.0677,1.066,1.0806,1.0764,1.0769,1.0775,1.0823,1.0836,1.0848,1.0692,1.0691,1.069,0,0,1.0206,1.0237,1.0301,1.0333,1.0381,1.0398,1.0413,1.046,1.0475,1.0552,1.0546,1.0595,1.0689,1.0723,1.0753,1.0853,1.0847,1.0869,1.0917,1.0965,1.0976,1.0986,1.1023,1.1035,1.0878,1.0878,1.0878,0,1.0243,1.0326,1.0336,1.0396,1.0429,1.0421,1.0487,1.0517,1.058,1.0603,1.0583,1.0699,1.0731,1.0824,1.0848,1.0872,1.089,1.0865,1.0973,1.0984,1.0993,1.1028,1.1042,1.0881,1.088,1.088,1.088,0,1.0369,1.0426,1.0472,1.0532,1.0569,1.0633,1.0652,1.0688,1.069,1.0709,1.0787,1.0824,1.0883,1.0905,1.0908,1.0999,1.0987,1.097,1.0936,1.1009,1.1042,1.1055,1.0884,1.0883,1.0883,1.0882,0,0,1.0482,1.0544,1.0561,1.0588,1.0639,1.0684,1.0746,1.0802,1.0834,1.0876,1.0929,1.1007,1.0991,1.1025,1.1031,1.1073,1.1151,1.1051,1.1053,1.1069,1.1253,1.1266,1.1281,1.1146,1.1148,1.115,1.1249,0,1.0578,1.0688,1.0697,1.0796,1.0849,1.084,1.0894,1.0932,1.095,1.0998,1.1018,1.1073,1.1048,1.1068,1.1109,1.1133,1.1188,1.1125,1.1196,1.1198,1.1186,1.1299,1.1314,1.1405,1.1262,1.1264,1.1266,0,1.0707,1.0752,1.0855,1.0897,1.092,1.0968,1.1021,1.1066,1.1108,1.1118,1.1154,1.1154,1.1218,1.1179,1.1267,1.1224,1.1253,1.1269,1.1272,1.1281,1.1238,1.1312,1.1435,1.1449,1.1286,1.1284,1.1283,0,1.078,1.0867,1.0939,1.0962,1.1013,1.1047,1.107,1.1109,1.1142,1.1187,1.1209,1.1261,1.129,1.1331,1.1345,1.1315,1.1433,1.1395,1.1444,1.1443,1.1471,1.1469,1.1602,1.1487,1.1486,1.1486,1.1486,0,1.0888,1.0952,1.0973,1.1018,1.1089,1.1098,1.1169,1.119,1.1224,1.1273,1.1268,1.1315,1.133,1.1378,1.139,1.1461,1.1474,1.1484,1.1487,1.1486,1.1485,1.1507,1.1502,1.149,1.1489,1.1488,1.1488,0,1.0984,1.1,1.1079,1.1119,1.1131,1.1182,1.1217,1.126,1.1276,1.1338,1.1353,1.1379,1.1436,1.1453,1.1522,1.153,1.1614,1.161,1.16,1.16,1.1649,1.1644,1.1801,1.1822,1.1692,1.1693,1.1694,0,1.1052,1.1101,1.1146,1.1178,1.1202,1.1254,1.1287,1.1297,1.1332,1.1381,1.1419,1.1474,1.152,1.1611,1.1637,1.1689,1.1687,1.1738,1.1695,1.1692,1.169,1.1687,1.1692,1.1747,1.1749,1.175,1.1751,0,1.1173,1.1178,1.1226,1.1276,1.1315,1.1355,1.1394,1.142,1.1436,1.1475,1.1532,1.1567,1.1636,1.1692,1.1745,1.1769,1.1763,1.1763,1.1778,1.1778,1.1771,1.1777,1.1624,1.1761,1.176,1.1759,1.1758,1.1758,1.1258,1.1301,1.1339,1.1392,1.1421,1.1457,1.1499,1.1519,1.1567,1.1624,1.1627,1.1689,1.1728,1.1798,1.1824,1.1873,1.1858,1.1879,1.1884,1.189,1.1894,1.1761,1.1882,1.1882,1.1882,1.1882,1.1881,0,1.138,1.1403,1.1451,1.1504,1.1546,1.1534,1.1575,1.1611,1.1666,1.1702,1.1746,1.1811,1.1865,1.1893,1.1946,1.198,1.1978,1.1993,1.1992,1.1998,1.1904,1.1887,1.1994,1.1994,1.1994,1.1994,1.1994,1.1994,1.1448,1.1519,1.1529,1.1614,1.1637,1.1697,1.1722,1.1755,1.1783,1.1856,1.19,1.1917,1.195,1.2005,1.2054,1.2061,1.2081,1.2098,1.2104,1.2016,1.2004,1.1994,1.1978,1.2102,1.2102,1.2194,1.2195,1.2195]}]]